Temp
25 25 26 28 32 34 31 30 31 32 32 33 33 33 32 31 31 29 27 28 27 26 24 22 22 21 22 22 23 23 22 22 22 22 22 22 21 21 21 21 22 21 22 22 22 22 22 21 21
27 27 28 33 33 32 31 28 30 32 32 32 33 32 33 31 30 28 27 27 27 27 25 24 22 22 22 22 23 23 22 21 22 22 22 22 21 21 21 21 21 22 22 23 22 22 22 22 22
27 27 33 33 33 31 31 28 30 30 31 32 33 33 32 30 28 28 27 26 27 26 26 24 22 22 21 21 23 22 22 22 21 22 22 21 21 21 21 21 21 21 22 22 22 22 22 22 21
30 33 34 34 32 32 33 32 33 32 32 29 32 31 30 28 28 28 26 27 27 26 26 23 22 22 21 21 23 23 22 22 22 22 22 22 21 21 21 22 22 22 22 22 22 22 22 22 21
31 34 34 33 32 33 33 33 33 30 33 31 29 30 30 28 27 27 27 27 27 27 26 23 22 22 21 21 22 22 22 22 22 22 21 22 21 21 22 22 22 22 22 22 22 22 22 21 21
35 34 34 33 33 33 33 32 33 33 32 33 31 31 30 27 27 27 27 27 27 26 26 24 22 22 22 21 22 22 22 21 22 22 22 22 21 21 21 21 22 22 21 21 21 21 21 21 21
34 35 33 33 32 33 33 33 33 33 32 33 33 31 30 28 28 27 27 27 27 26 27 25 23 22 22 22 22 22 22 22 22 22 21 21 21 21 21 21 21 22 22 21 21 21 21 21 20
34 34 34 33 32 33 33 33 33 33 32 33 34 31 30 29 27 28 27 27 27 26 26 25 24 24 23 23 22 22 22 22 21 21 21 21 21 21 21 22 21 21 22 22 21 21 22 21 21
34 35 33 33 33 33 33 33 32 33 33 33 33 33 32 28 27 28 28 27 26 26 26 26 25 24 24 25 23 22 22 21 21 21 21 22 24 23 22 22 21 21 22 22 21 21 21 22 22
35 34 33 34 34 34 33 33 33 33 33 32 31 31 30 28 28 28 28 27 26 25 26 27 27 26 25 25 24 23 23 22 23 23 22 24 24 24 23 22 22 22 22 22 22 21 21 22 24
34 34 34 34 34 34 34 33 33 32 32 33 32 31 30 29 28 29 28 27 27 26 26 26 26 26 25 25 24 25 22 23 23 22 23 23 24 24 23 23 23 22 22 21 22 22 23 24 24
34 34 35 35 34 33 33 34 33 33 33 34 34 32 31 30 30 29 29 28 28 26 26 26 25 24 24 25 24 25 24 23 25 24 23 24 23 24 22 22 24 22 22 21 22 23 24 24 23
34 35 36 36 35 34 33 33 33 33 34 33 33 32 31 31 30 30 30 29 27 26 26 25 25 23 23 23 24 25 25 23 23 24 23 24 24 24 23 22 23 23 23 23 22 22 22 24 24
35 35 36 36 35 34 33 34 32 34 34 32 32 32 32 31 30 30 29 29 28 27 26 26 25 24 23 23 23 23 23 25 24 25 24 22 23 24 23 23 25 24 22 22 23 22 23 24 24
35 35 36 36 35 35 34 33 32 35 33 32 32 32 32 32 30 30 29 29 28 27 27 26 25 25 23 24 23 23 24 25 25 25 23 23 23 24 22 24 23 25 24 23 23 23 23 23 24
35 35 34 36 35 34 33 34 36 34 33 33 32 32 32 32 31 30 29 29 29 28 27 26 26 26 24 24 23 22 23 25 25 25 24 23 23 22 23 24 25 24 24 24 25 25 23 22 24
35 34 34 35 35 35 33 34 35 34 33 33 33 33 32 32 31 30 30 29 29 28 27 26 26 26 25 23 23 23 22 23 24 25 25 24 23 23 23 25 25 23 24 24 25 25 23 25 23
33 34 35 35 36 35 35 35 36 34 33 33 34 33 33 32 32 31 30 30 29 29 27 26 26 25 24 23 23 22 23 22 23 25 25 24 24 23 23 25 24 23 24 24 24 23 25 25 25
34 34 34 36 36 34 35 35 36 36 33 33 34 34 33 33 33 32 31 30 29 29 28 26 26 25 24 23 24 22 22 22 23 25 24 24 24 23 23 25 24 23 23 24 23 24 23 24 24
34 34 35 36 34 34 35 35 36 35 34 33 33 34 34 34 34 32 31 31 30 29 28 26 26 25 24 25 25 25 24 23 25 25 24 24 24 24 23 23 25 24 25 23 23 23 24 25 25
35 35 35 35 35 35 34 36 35 34 32 32 33 34 34 34 34 34 32 31 30 30 28 27 25 25 24 25 24 23 23 24 23 24 24 24 24 24 23 23 24 24 24 26 24 24 24 25 25
35 36 35 35 35 34 34 34 35 35 34 32 33 33 34 34 34 35 34 32 31 30 28 27 25 25 25 24 24 23 25 26 26 25 25 25 24 24 24 24 24 23 25 25 25 25 24 24 24
35 35 35 35 36 35 35 35 35 35 35 35 35 34 33 34 34 34 35 34 32 30 29 27 25 24 25 24 24 24 24 25 24 26 26 24 25 24 24 24 24 24 24 24 24 24 24 25 25
36 35 36 36 36 35 35 34 34 35 34 34 35 35 34 34 34 34 34 33 32 29 27 27 26 24 24 24 24 24 23 25 26 25 24 24 24 24 24 24 24 24 24 24 25 24 24 24 24
35 36 35 35 35 34 35 33 34 36 34 33 33 34 34 34 33 34 34 33 30 29 27 27 25 24 24 24 25 24 24 24 24 24 25 25 24 24 26 24 24 25 24 24 24 24 24 24 23
36 36 35 32 34 35 36 34 35 35 34 34 34 33 32 32 32 33 33 31 30 28 28 27 24 25 25 25 24 24 24 24 24 24 26 26 27 27 26 25 25 24 24 24 24 23 25 24 24
35 35 37 36 36 35 36 36 36 37 35 35 35 35 34 32 30 32 32 31 29 28 27 27 25 25 25 25 24 24 23 24 25 25 24 26 26 27 25 24 24 24 24 24 24 24 24 24 24
35 36 35 36 33 33 35 35 35 35 35 35 35 35 35 33 30 31 32 31 30 29 27 26 26 26 25 26 25 25 24 24 24 24 24 25 26 25 25 24 24 24 24 24 24 25 25 24 25
35 35 35 36 36 34 34 35 37 35 34 34 35 34 34 33 32 32 31 30 30 30 27 26 25 25 25 25 25 25 25 25 24 24 24 24 24 24 24 24 24 25 25 24 24 25 25 24 24
36 36 36 35 34 35 34 35 37 35 34 33 34 33 34 33 32 31 32 31 30 30 28 25 25 24 26 26 26 25 25 25 25 24 24 24 24 24 24 24 25 24 24 24 24 24 26 25 25
Height
776 777 776 773 779 767 794 800 785 784 782 774 773 778 782 784 791 813 801 804 809 813 819 823 825 828 829 831 832 833 836 839 841 843 844 846 849 851 852 853 855 856 856 857 859 859 859 860 861
777 776 774 763 777 794 800 799 796 783 779 775 775 778 780 792 789 797 802 807 811 814 820 825 828 830 831 832 833 834 837 840 843 845 846 848 850 851 853 854 856 856 857 858 860 860 859 859 861
775 774 765 771 780 798 803 802 792 789 783 781 780 776 781 793 797 798 803 809 813 816 821 826 829 831 833 834 834 836 838 841 844 846 848 849 851 853 853 855 856 856 857 857 859 859 859 858 861
772 767 763 775 792 787 783 784 779 784 782 785 779 788 789 795 797 800 806 810 814 818 822 826 830 832 834 835 836 837 840 843 846 847 849 850 851 852 853 855 855 856 857 858 859 859 859 860 860
771 764 779 788 791 784 778 777 777 791 779 787 789 793 794 798 800 803 808 812 815 819 823 829 831 834 835 837 837 839 842 845 847 849 849 850 851 852 852 853 855 855 856 858 858 857 859 860 860
766 767 785 796 793 782 778 776 778 779 780 780 786 787 795 800 802 805 810 813 817 821 824 829 833 835 836 838 838 841 843 846 849 849 850 850 851 851 852 854 854 854 856 856 857 858 859 860 861
776 774 791 790 794 786 781 773 779 777 780 780 776 790 795 799 802 806 810 814 818 822 824 829 833 836 837 838 839 841 843 846 848 849 849 849 850 851 851 853 854 854 855 856 857 859 860 860 862
772 775 788 788 796 793 776 776 775 777 782 775 775 788 796 796 803 806 811 814 818 822 826 829 832 835 838 839 840 842 843 845 847 849 849 849 850 850 851 852 854 855 856 857 858 859 860 860 861
771 782 794 792 790 787 776 780 776 773 777 777 777 778 781 795 802 806 811 814 819 822 825 828 831 834 837 838 841 841 843 845 846 848 848 849 849 849 852 853 854 854 856 857 858 859 859 860 860
774 787 792 780 775 779 776 777 777 779 777 781 783 784 788 796 800 803 807 812 817 822 824 825 828 831 835 837 839 842 843 845 847 848 849 849 850 850 851 852 852 854 854 855 856 858 858 857 856
777 790 779 776 773 771 774 776 772 778 782 773 779 784 788 794 798 801 805 810 813 819 823 826 829 831 834 836 838 840 842 844 846 848 849 849 850 850 851 852 852 852 853 853 854 855 857 856 856
787 777 774 772 771 773 776 770 774 773 772 768 770 780 787 791 794 797 802 807 812 817 821 825 829 831 834 836 838 839 841 843 843 846 848 849 850 850 848 850 850 849 851 852 852 853 854 855 856
783 775 768 764 767 769 769 773 774 772 766 769 770 779 784 788 793 797 801 806 812 816 820 824 828 831 833 836 837 838 839 842 843 845 847 848 849 849 849 849 849 848 850 850 851 852 853 854 855
778 773 767 765 765 766 773 770 773 765 764 770 772 777 781 785 790 795 799 805 810 815 818 822 826 829 832 834 836 837 839 839 841 843 845 847 848 848 849 848 847 848 847 848 849 850 850 852 852
775 781 768 768 767 768 767 777 775 759 764 770 773 776 779 784 789 793 798 803 808 813 816 820 824 827 830 832 835 836 837 838 840 842 844 845 846 846 846 846 847 847 848 848 848 848 849 850 851
782 777 789 768 769 767 772 780 757 756 764 768 770 774 778 782 786 791 797 801 805 809 813 818 821 824 828 831 833 834 836 837 839 841 843 844 845 845 846 846 847 846 847 847 846 846 847 849 850
783 796 792 782 768 771 775 775 758 757 761 765 767 770 775 779 783 788 793 798 801 806 811 815 818 821 825 828 831 833 835 836 837 839 841 843 844 845 845 845 846 845 846 847 846 846 847 846 848
800 795 788 787 772 771 774 768 753 754 761 760 760 763 769 772 777 783 788 793 798 802 808 813 816 819 823 825 829 831 834 836 837 838 839 841 842 844 844 844 845 845 846 846 846 846 846 846 846
791 791 791 774 766 775 768 763 753 745 757 758 755 760 763 765 770 777 785 789 794 799 803 808 812 816 820 823 825 828 830 834 836 836 838 839 841 842 843 843 844 844 845 846 845 846 845 846 845
786 789 781 770 770 773 767 764 750 747 747 754 755 755 757 759 763 772 779 784 788 793 798 804 807 812 816 819 822 824 827 830 832 834 836 838 839 840 841 842 842 843 843 845 845 845 845 844 844
780 782 780 784 770 763 769 759 757 752 753 751 750 749 751 756 758 764 772 777 782 788 795 800 804 808 813 816 819 822 825 828 829 831 833 835 837 839 840 841 842 842 843 841 844 844 844 843 842
785 768 774 776 778 791 768 790 760 753 751 755 750 749 747 751 754 755 762 771 777 784 791 796 800 805 808 812 816 819 821 821 824 827 829 832 834 837 838 840 841 841 841 841 842 842 842 843 842
780 768 773 772 772 773 771 778 761 749 753 749 743 742 744 743 747 753 755 761 772 781 785 790 795 800 803 805 810 816 819 820 822 823 826 830 832 834 836 838 839 840 840 841 842 842 842 841 841
762 771 764 762 766 786 776 782 770 758 760 750 741 737 736 738 742 749 753 759 768 777 783 787 791 794 797 802 807 812 815 816 817 821 824 827 830 833 834 835 837 839 840 840 841 841 840 840 840
769 770 785 789 785 786 765 785 772 750 751 751 747 739 735 735 740 745 750 757 765 772 780 785 790 794 797 798 803 806 812 815 816 819 821 822 826 829 830 833 835 836 839 839 839 839 838 838 838
762 766 783 811 792 776 759 782 765 746 744 742 738 738 739 741 743 741 745 756 763 769 775 778 784 787 793 796 798 802 809 812 814 816 815 817 820 822 826 830 832 834 836 836 837 837 836 836 836
768 776 753 768 765 780 762 756 749 737 743 740 737 734 737 742 746 746 747 751 758 765 770 776 781 784 788 792 795 798 803 808 810 813 815 816 817 819 824 826 828 830 832 833 833 832 833 834 834
761 753 774 764 800 802 770 771 764 756 750 744 742 738 736 736 744 745 748 753 758 762 767 773 777 780 784 788 792 795 800 805 809 811 813 814 815 818 820 823 826 828 828 829 829 830 830 831 831
762 764 763 757 767 785 786 770 740 750 749 750 743 740 738 738 741 743 747 753 757 761 767 771 775 778 782 785 787 792 796 800 804 807 809 812 814 815 817 820 823 823 825 826 827 827 827 827 829
748 753 751 772 779 767 775 770 732 741 746 748 746 743 740 739 740 745 747 750 754 758 764 769 774 776 779 782 786 790 793 797 799 802 805 808 810 812 815 816 819 820 822 823 824 824 824 826 826
Wind_Speed
1 3 3 5 4 2 7 6 2 7 5 3 2 1 8 5 6 4 18 15 23 23 21 18 18 16 16 16 16 16 16 15 15 15 11 10 8 8 7 7 7 6 5 4 3 5 5 5 5
2 3 5 3 2 5 6 4 2 5 6 3 4 2 1 6 8 11 19 21 23 23 21 18 18 17 15 15 15 15 15 15 14 15 11 10 8 7 7 7 6 5 5 4 6 4 4 4 4
3 3 3 2 0 7 6 2 5 5 4 2 3 2 3 4 5 20 17 25 22 22 20 19 19 17 16 14 14 13 13 13 13 12 10 8 7 7 7 6 6 6 6 6 6 6 7 5 4
5 4 3 6 11 7 8 7 6 8 5 1 1 6 6 3 13 11 23 24 22 21 20 18 18 16 15 15 14 13 12 11 11 10 8 7 7 6 5 4 5 5 4 5 6 7 8 6 4
3 3 6 10 10 7 3 2 5 1 3 6 2 3 6 8 9 19 25 23 21 20 19 18 19 16 16 14 13 13 11 10 10 9 7 7 6 5 4 3 3 2 2 3 4 5 5 3 4
1 3 6 10 10 4 1 1 4 4 7 7 6 7 7 10 17 23 24 21 21 19 18 18 17 17 16 13 12 12 11 9 9 8 7 7 5 5 5 4 4 4 3 1 1 2 3 3 3
5 3 7 6 7 5 3 4 2 2 7 5 5 5 8 12 18 23 22 20 20 18 18 17 16 15 15 14 12 13 10 9 8 7 8 7 6 5 5 5 5 6 6 4 2 2 3 3 4
2 3 4 5 7 8 4 5 1 4 4 5 6 5 10 16 21 22 21 20 19 17 16 16 16 15 13 12 13 12 10 9 7 7 8 7 6 7 5 6 7 7 6 5 4 2 3 4 4
1 3 5 7 6 6 1 3 2 1 4 4 6 2 9 23 24 23 21 20 18 16 17 17 16 15 14 13 12 10 8 9 7 8 7 5 6 6 6 7 9 7 7 5 3 2 2 4 5
4 3 5 4 5 4 1 4 3 6 6 6 6 7 19 26 25 25 23 21 21 19 19 17 16 16 14 12 11 10 9 8 8 7 6 6 6 6 6 7 7 7 7 7 9 6 5 4 7
3 4 8 6 6 5 2 5 4 6 5 6 10 13 20 25 25 24 23 22 22 20 19 17 16 15 14 12 11 10 8 8 9 7 7 6 6 6 5 5 5 6 6 6 6 8 8 6 4
4 2 5 6 2 4 4 2 4 7 4 3 3 15 19 20 22 24 24 23 21 21 19 18 16 15 14 12 12 10 10 10 9 8 8 7 6 6 6 6 6 10 7 5 4 5 5 6 5
4 10 10 9 3 7 4 6 5 7 6 3 5 15 19 18 20 21 22 20 19 19 19 18 16 15 14 12 12 10 9 10 11 8 9 8 7 7 6 6 6 8 4 4 4 5 6 5 6
11 11 9 3 3 4 8 6 4 3 4 6 11 16 17 17 18 20 20 19 19 17 17 17 17 15 15 14 12 10 9 10 11 10 9 9 8 6 5 5 4 5 7 7 5 5 5 6 5
9 11 7 3 1 2 6 9 9 4 8 9 12 13 15 15 19 21 22 21 20 18 16 16 16 15 15 15 13 11 9 10 11 11 11 9 8 6 6 3 2 3 4 4 5 6 6 6 6
7 7 5 4 3 3 6 9 6 9 11 11 12 14 15 16 19 21 21 20 19 18 18 17 15 15 16 15 14 12 9 10 11 11 10 10 9 7 4 3 2 3 4 3 3 4 3 5 4
6 6 8 5 2 7 5 12 6 6 12 12 13 15 16 16 18 21 20 21 20 20 18 18 17 16 16 17 15 13 9 10 11 12 12 10 9 7 6 3 3 2 3 1 2 3 4 3 5
4 8 8 9 3 8 12 17 13 10 13 14 14 15 17 18 19 22 22 21 21 20 19 18 18 17 16 15 15 13 11 10 12 12 13 10 9 8 6 5 2 2 3 3 2 3 3 5 3
9 11 11 12 7 8 10 14 16 8 13 15 14 14 16 18 20 22 22 21 20 21 21 21 21 19 17 17 16 15 14 12 13 13 12 11 9 9 7 6 4 2 4 5 4 2 4 5 5
9 11 9 8 2 7 12 17 9 8 10 14 15 14 16 15 15 18 21 22 23 22 22 21 23 20 21 17 16 14 15 13 14 13 12 11 9 9 8 7 6 3 3 3 3 4 4 5 5
13 9 8 11 11 6 11 3 6 4 1 7 13 15 15 16 16 17 20 22 23 22 22 22 22 22 18 18 16 14 10 10 12 14 14 13 12 11 10 8 7 5 5 5 3 3 5 6 5
13 4 7 10 10 8 5 6 6 5 4 4 7 13 16 17 16 17 20 21 22 20 19 20 21 20 20 19 17 19 16 15 15 16 16 13 12 11 10 10 8 8 7 5 4 4 6 4 5
9 5 11 10 13 5 4 8 8 1 6 5 3 8 14 17 18 17 19 21 18 16 21 22 21 20 20 20 21 20 16 13 10 15 17 15 11 10 12 11 9 8 8 6 6 5 5 7 7
10 13 15 12 9 8 6 6 7 7 9 5 5 5 7 15 16 15 19 16 15 19 19 21 22 23 24 22 19 16 18 14 13 15 15 14 12 11 13 11 10 9 8 8 8 7 7 7 6
11 15 8 4 7 2 6 2 6 5 10 6 10 9 4 7 15 15 14 17 19 21 23 20 19 19 21 20 20 19 18 17 13 14 16 16 13 13 14 11 10 10 8 9 9 8 8 7 7
6 9 7 5 4 3 6 4 5 4 3 3 4 6 3 3 10 15 17 19 20 20 23 24 23 20 21 21 22 20 17 15 14 15 17 17 17 15 9 10 11 10 9 9 9 9 9 7 7
7 7 8 9 7 8 3 3 13 4 4 3 7 8 7 6 10 13 16 22 23 24 23 24 21 21 21 20 20 18 17 17 15 13 16 16 14 11 10 9 10 11 10 10 10 9 10 8 6
9 5 6 5 3 5 3 4 7 8 6 6 8 10 11 5 10 12 12 17 18 21 21 20 22 22 21 20 20 18 19 18 16 15 16 18 16 14 10 12 11 10 10 10 11 8 7 7 7
5 9 7 7 5 8 5 3 8 7 8 7 8 9 10 9 5 9 12 16 17 16 16 17 18 18 19 20 18 17 18 18 19 18 17 18 16 15 14 11 9 10 10 9 9 9 5 5 6
10 12 8 7 5 3 7 5 9 9 7 6 7 8 8 7 3 4 9 15 17 18 19 15 15 14 15 16 17 18 18 18 19 19 17 19 19 17 14 12 12 10 10 8 9 8 6 7 8
Wind_Direction
118 224 234 221 229 200 96 87 350 116 124 76 87 340 39 33 0 52 139 148 148 147 152 156 159 153 155 153 144 149 159 160 162 161 159 168 166 163 167 165 160 187 170 162 180 183 178 148 141
286 243 222 244 238 116 89 75 131 68 72 111 128 171 249 75 59 130 139 152 151 148 151 157 155 152 152 155 152 149 148 156 163 163 164 167 167 168 176 183 192 218 225 226 241 240 222 196 183
300 264 284 337 8 81 107 172 115 128 19 24 128 4 21 60 92 145 141 152 152 149 152 160 161 151 155 152 149 148 150 154 160 169 175 174 173 173 184 189 217 242 249 247 257 250 249 262 244
311 196 211 51 76 78 101 153 138 159 163 156 22 96 110 18 148 145 149 153 153 153 157 169 164 158 157 156 154 154 155 156 160 168 176 182 184 185 198 206 214 237 248 247 237 241 251 251 248
288 253 103 78 78 90 77 72 129 147 177 150 105 118 86 107 134 144 154 159 156 157 158 164 166 167 163 162 162 162 165 167 171 172 183 197 199 209 210 199 198 224 237 249 244 243 245 236 228
66 262 71 67 69 77 141 129 184 201 165 128 151 125 95 125 145 150 158 162 160 157 159 165 171 173 170 173 177 175 174 180 180 186 196 202 197 202 208 176 161 160 149 133 238 244 216 191 205
3 8 59 64 55 74 61 149 202 141 168 163 142 132 119 147 150 155 161 162 159 161 161 167 174 175 177 183 185 185 188 197 191 190 202 201 202 201 201 195 173 187 138 137 141 224 188 192 183
345 292 58 61 34 55 78 167 123 256 110 114 178 154 168 155 158 159 164 165 162 164 166 172 175 179 183 190 191 198 202 198 194 195 210 202 205 215 211 202 181 181 156 154 142 212 205 199 194
280 258 55 38 4 35 75 205 166 187 164 201 155 30 123 153 159 162 166 167 165 173 176 175 178 180 180 180 190 193 197 207 198 201 204 205 208 212 226 207 230 206 185 183 163 184 216 198 199
320 352 20 337 327 328 147 231 178 211 188 178 154 119 139 157 166 169 173 170 174 178 184 181 178 177 181 182 179 192 197 207 200 197 198 205 214 219 201 236 236 243 234 239 232 225 213 235 199
6 11 353 6 332 282 300 217 208 235 228 216 187 161 158 165 174 176 176 181 180 180 185 185 183 178 185 187 188 189 202 192 196 202 200 205 219 221 227 232 246 257 249 241 225 223 222 228 216
274 313 354 321 336 240 251 281 230 241 280 13 191 169 168 175 180 183 181 181 180 184 187 188 186 183 189 189 193 195 196 196 204 199 205 203 213 222 242 249 256 264 253 225 217 209 208 220 219
263 336 319 333 278 239 222 239 254 252 250 210 197 172 179 181 185 189 184 182 183 188 189 190 189 188 189 194 197 201 203 202 203 199 204 205 222 237 254 269 244 249 241 240 208 212 214 213 218
328 308 309 340 11 224 235 248 226 192 192 183 172 177 181 185 185 186 187 186 189 193 191 192 194 193 191 199 202 203 199 206 205 203 208 217 225 246 266 241 231 243 248 262 254 226 222 224 221
307 305 295 24 19 284 263 247 236 199 180 177 175 180 180 185 183 187 190 192 191 196 195 200 199 197 197 204 209 206 199 204 206 208 208 214 232 251 263 261 257 242 259 269 235 223 220 228 214
300 277 307 59 271 107 253 308 139 165 187 188 185 179 186 185 188 189 192 194 192 197 199 202 202 201 201 203 210 213 204 203 205 204 208 216 227 244 254 259 273 284 237 278 242 239 219 212 203
210 309 324 343 278 310 246 302 63 182 201 200 190 184 188 189 195 189 194 197 196 199 198 202 202 201 201 204 207 214 213 205 200 202 207 211 219 231 240 266 296 261 218 275 297 283 259 238 216
349 307 311 315 349 280 283 276 286 190 226 211 199 194 192 195 196 195 198 199 201 201 204 205 204 203 202 206 209 212 213 207 200 206 210 215 219 227 236 252 270 228 222 276 272 284 285 276 266
293 296 298 304 10 304 303 303 307 257 213 230 211 199 202 202 196 196 200 199 204 206 206 206 204 203 199 199 206 205 209 209 198 209 212 217 222 220 228 237 239 249 251 259 261 250 277 271 254
266 281 294 306 100 300 330 313 1 345 221 229 231 215 210 208 200 192 201 203 206 206 210 210 211 202 204 205 209 206 207 207 205 205 207 212 214 214 221 227 235 244 244 240 251 250 260 261 241
250 264 314 335 320 228 322 68 32 53 284 237 228 228 221 216 204 198 198 209 206 205 206 208 212 208 210 213 201 197 202 205 201 204 207 215 216 219 229 233 227 238 244 266 262 260 269 300 257
282 58 296 309 308 336 342 340 59 36 84 197 229 227 225 213 215 215 202 204 212 207 205 207 208 204 205 210 199 197 205 203 203 202 205 209 215 222 228 212 221 231 244 265 265 261 280 283 288
286 300 301 294 290 290 162 283 109 107 26 351 242 226 225 225 216 210 218 200 207 210 202 199 198 200 200 199 199 200 204 210 209 209 201 207 210 219 205 204 219 230 238 245 258 272 267 271 279
281 274 259 248 266 245 78 308 65 30 360 342 342 313 242 213 212 213 210 197 194 191 198 197 195 195 193 202 199 201 208 211 197 202 196 204 207 220 220 208 220 234 239 243 243 256 261 269 283
240 261 276 248 193 48 76 232 322 30 11 340 327 341 287 214 196 199 191 190 188 188 193 196 197 198 198 195 200 203 211 210 200 203 204 197 201 218 211 214 223 240 239 244 242 245 250 252 256
262 311 301 294 263 35 129 352 56 14 341 294 2 16 12 184 197 202 185 187 188 189 189 194 187 194 201 201 201 203 208 205 205 203 203 199 198 203 197 216 229 240 250 243 239 241 247 242 250
137 233 360 289 206 251 74 19 109 70 110 79 52 45 46 145 193 200 192 188 184 192 192 195 195 192 197 201 205 200 204 210 208 203 206 205 205 209 214 220 224 228 240 244 239 241 231 243 243
267 360 242 196 276 282 72 273 50 41 79 47 39 27 26 53 177 197 199 200 194 192 193 196 197 198 198 198 201 201 205 203 206 206 207 208 207 212 214 220 218 225 232 250 250 238 211 227 242
178 225 224 300 302 310 260 96 74 47 46 34 32 22 21 31 155 186 192 193 195 198 183 195 198 199 202 201 198 200 206 206 206 210 211 214 215 218 221 227 228 231 229 232 239 238 230 247 244
273 286 273 255 195 221 307 312 70 55 74 46 31 21 19 33 83 174 193 193 201 198 183 190 194 195 201 203 202 201 201 207 208 212 212 212 218 223 223 227 233 233 228 234 239 246 253 243 248